Location: Bakhuizen
(52.8696°N, 5.4575°E)
Time: 23:15:20
(UTC+00:00)

Cosmos 1238 Rocket - Pass Details

Date: 11 May 2021
Orbit: 373 x 1021 km, 82.9° (Epoch: 24 June)

Event Time Altitude Azimuth Distance (km) Brightness Sun altitude
Rises 22:11:46 0° 349° (N) 3,742 8.7 -16.8°
Reaches altitude 10° 22:14:27 10° 349° (N) 2,745 7.6 -16.9°
Maximum altitude 22:20:50 90° 12° (NNE) 904 3.8 -17.2°
Enters shadow 22:23:53 29° 171° (S) 1,506 4.4 -17.4°
